TVS64C ENBR-LKPR

Flight info

Callsign TVS64C
Flight time N/A
Altitude 37000
Route TINIG DCT GIMRU DCT GODUR Z998 OSKAN M748 HDO DCT GOLOP
Aircraft A320/M-SDE3FGHIRWY/LB1

Departure

Time 2026-05-06 17:31
Airport Bergen Airport, Flesland (ENBR)

Arrival

Time N/A
Airport Václav Havel Airport Prague (LKPR)
Time Latitude Longitude Altitude Speed Heading
2026-05-06 17:02 60.28980 5.22654 173 ft 0 kts 156°
2026-05-06 17:14 60.28996 5.22641 173 ft 4 kts 156°
2026-05-06 17:15 60.29019 5.22621 173 ft 2 kts 156°
2026-05-06 17:15 60.29037 5.22604 173 ft 2 kts 159°
2026-05-06 17:15 60.29038 5.22603 173 ft 0 kts 159°
2026-05-06 17:18 60.29034 5.22591 173 ft 2 kts 239°
2026-05-06 17:19 60.29033 5.22492 171 ft 10 kts 263°
2026-05-06 17:19 60.29036 5.22393 167 ft 6 kts 298°
2026-05-06 17:19 60.29055 5.22358 167 ft 0 kts 326°
2026-05-06 17:19 60.29056 5.22358 167 ft 0 kts 326°
2026-05-06 17:20 60.29057 5.22356 166 ft 2 kts 326°
2026-05-06 17:20 60.29076 5.22288 164 ft 10 kts 284°
2026-05-06 17:20 60.29146 5.22203 163 ft 13 kts 351°
2026-05-06 17:21 60.29252 5.22168 163 ft 18 kts 350°
2026-05-06 17:21 60.29368 5.22129 159 ft 19 kts 351°
2026-05-06 17:21 60.29512 5.22079 155 ft 23 kts 351°
2026-05-06 17:21 60.29653 5.22033 148 ft 21 kts 350°
2026-05-06 17:22 60.29803 5.21982 149 ft 23 kts 351°
2026-05-06 17:22 60.29967 5.21928 156 ft 25 kts 351°
2026-05-06 17:22 60.30119 5.21877 163 ft 21 kts 351°
2026-05-06 17:22 60.30272 5.21825 166 ft 21 kts 350°
2026-05-06 17:23 60.30373 5.21791 171 ft 13 kts 351°
2026-05-06 17:23 60.30468 5.21760 174 ft 12 kts 351°
2026-05-06 17:23 60.30549 5.21732 178 ft 10 kts 350°
2026-05-06 17:23 60.30553 5.21731 179 ft 0 kts 351°
2026-05-06 17:24 60.30554 5.21731 179 ft 1 kts 351°
2026-05-06 17:25 60.30566 5.21727 179 ft 3 kts 351°
2026-05-06 17:25 60.30596 5.21717 180 ft 6 kts 350°
2026-05-06 17:25 60.30644 5.21692 181 ft 5 kts 332°
2026-05-06 17:25 60.30647 5.21686 181 ft 0 kts 324°
2026-05-06 17:27 60.30648 5.21685 181 ft 1 kts 324°
2026-05-06 17:27 60.30661 5.21649 182 ft 5 kts 294°
2026-05-06 17:27 60.30663 5.21585 182 ft 0 kts 263°
2026-05-06 17:29 60.30660 5.21537 183 ft 8 kts 262°
2026-05-06 17:29 60.30643 5.21409 189 ft 10 kts 231°
2026-05-06 17:30 60.30594 5.21397 182 ft 0 kts 170°
2026-05-06 17:30 60.30528 5.21419 177 ft 39 kts 171°
2026-05-06 17:31 60.29994 5.21598 162 ft 111 kts 170°
2026-05-06 17:31 60.29295 5.21836 171 ft 151 kts 170°
2026-05-06 17:31 60.28351 5.22160 692 ft 152 kts 173°
2026-05-06 17:31 60.27256 5.22554 1341 ft 158 kts 174°
2026-05-06 17:32 60.26163 5.22921 1993 ft 160 kts 175°
2026-05-06 17:32 60.25028 5.23277 2452 ft 175 kts 175°
2026-05-06 17:32 60.23751 5.23683 2788 ft 197 kts 173°
2026-05-06 17:32 60.22320 5.24147 3122 ft 219 kts 173°
2026-05-06 17:33 60.20787 5.25022 3501 ft 245 kts 151°
2026-05-06 17:33 60.19564 5.27570 4019 ft 267 kts 116°
2026-05-06 17:33 60.18909 5.31119 4913 ft 272 kts 108°
2026-05-06 17:33 60.18306 5.34747 5854 ft 276 kts 108°
2026-05-06 17:34 60.17697 5.38428 6808 ft 279 kts 108°
2026-05-06 17:34 60.17081 5.42149 7692 ft 283 kts 108°
2026-05-06 17:34 60.16451 5.45922 8569 ft 287 kts 108°
2026-05-06 17:34 60.15810 5.49749 9457 ft 291 kts 108°
2026-05-06 17:35 60.15157 5.53628 10255 ft 298 kts 108°
2026-05-06 17:35 60.14463 5.57731 10533 ft 322 kts 109°
2026-05-06 17:35 60.13713 5.62139 10792 ft 345 kts 109°
2026-05-06 17:36 60.10905 5.70043 12005 ft 359 kts 147°
2026-05-06 17:36 60.08782 5.72707 12745 ft 362 kts 151°
2026-05-06 17:36 60.06612 5.75326 13482 ft 367 kts 152°
2026-05-06 17:36 60.04403 5.77960 14114 ft 372 kts 154°
2026-05-06 17:37 60.02146 5.80641 14639 ft 381 kts 155°
2026-05-06 17:37 59.99855 5.83365 15269 ft 385 kts 155°
2026-05-06 17:37 59.97548 5.86109 15941 ft 388 kts 155°
2026-05-06 17:37 59.95220 5.88880 16608 ft 391 kts 155°
2026-05-06 17:38 59.92903 5.91642 17291 ft 394 kts 155°
2026-05-06 17:38 59.90539 5.94460 17953 ft 398 kts 155°
2026-05-06 17:38 59.88148 5.97308 18621 ft 401 kts 156°
2026-05-06 17:38 59.85738 6.00173 19205 ft 405 kts 156°
2026-05-06 17:39 59.83339 6.03016 19774 ft 409 kts 156°
2026-05-06 17:39 59.80847 6.05963 20335 ft 412 kts 157°
2026-05-06 17:39 59.78376 6.08883 20878 ft 415 kts 157°
2026-05-06 17:39 59.75870 6.11838 21385 ft 420 kts 157°
2026-05-06 17:40 59.73352 6.14802 21877 ft 424 kts 157°
2026-05-06 17:40 59.70815 6.17781 22421 ft 427 kts 156°
2026-05-06 17:40 59.68245 6.20791 22920 ft 431 kts 157°
2026-05-06 17:40 59.65653 6.23823 23392 ft 435 kts 157°
2026-05-06 17:41 59.63036 6.26879 23786 ft 438 kts 157°
2026-05-06 17:41 59.60407 6.29946 24243 ft 439 kts 157°
2026-05-06 17:41 59.57809 6.32975 24652 ft 441 kts 157°
2026-05-06 17:41 59.55161 6.36048 25087 ft 442 kts 158°
2026-05-06 17:42 59.52502 6.39126 25516 ft 443 kts 158°
2026-05-06 17:42 59.49842 6.42202 25954 ft 444 kts 158°
2026-05-06 17:42 59.47168 6.45291 26363 ft 445 kts 158°
2026-05-06 17:42 59.44491 6.48380 26741 ft 446 kts 158°
2026-05-06 17:43 59.41830 6.51451 27176 ft 445 kts 157°
2026-05-06 17:43 59.39153 6.54535 27592 ft 445 kts 158°
2026-05-06 17:43 59.36468 6.57621 27976 ft 447 kts 158°
2026-05-06 17:43 59.33788 6.60690 28347 ft 448 kts 158°
2026-05-06 17:44 59.31089 6.63768 28715 ft 449 kts 158°
2026-05-06 17:44 59.28379 6.66848 29045 ft 450 kts 158°
2026-05-06 17:44 59.25665 6.69932 29379 ft 452 kts 158°
2026-05-06 17:44 59.22943 6.73018 29662 ft 453 kts 158°
2026-05-06 17:45 59.20213 6.76107 29953 ft 454 kts 159°
2026-05-06 17:45 59.17471 6.79210 30220 ft 455 kts 158°
2026-05-06 17:45 59.15660 6.81260 30408 ft 455 kts 158°
2026-05-06 17:45 59.12921 6.84356 30600 ft 455 kts 158°
2026-05-06 17:46 59.10177 6.87446 30815 ft 457 kts 158°
2026-05-06 17:46 59.06526 6.91546 31151 ft 458 kts 158°
2026-05-06 17:46 59.03759 6.94644 31420 ft 458 kts 157°
2026-05-06 17:46 59.01896 6.96727 31595 ft 458 kts 157°
2026-05-06 17:47 58.99134 6.99809 31902 ft 458 kts 157°
2026-05-06 17:47 58.96379 7.02884 32199 ft 457 kts 158°
2026-05-06 17:47 58.93625 7.05956 32521 ft 456 kts 158°
2026-05-06 17:47 58.90881 7.09013 32829 ft 455 kts 158°
2026-05-06 17:48 58.88133 7.12062 33117 ft 455 kts 158°
2026-05-06 17:48 58.85388 7.15102 33418 ft 455 kts 158°
2026-05-06 17:48 58.82671 7.18104 33660 ft 455 kts 157°
2026-05-06 17:48 58.79934 7.21125 33984 ft 453 kts 157°
2026-05-06 17:49 58.77194 7.24146 34245 ft 453 kts 157°
2026-05-06 17:49 58.74456 7.27156 34472 ft 453 kts 157°
2026-05-06 17:49 58.71707 7.30171 34689 ft 454 kts 157°
2026-05-06 17:49 58.68965 7.33168 34884 ft 454 kts 157°
2026-05-06 17:50 58.66245 7.36133 35087 ft 455 kts 157°
2026-05-06 17:50 58.63488 7.39131 35278 ft 456 kts 157°
2026-05-06 17:50 58.60690 7.42177 35475 ft 457 kts 156°
2026-05-06 17:50 58.57928 7.45187 35664 ft 457 kts 156°
2026-05-06 17:51 58.55161 7.48198 35859 ft 458 kts 156°
2026-05-06 17:51 58.52380 7.51217 36016 ft 458 kts 156°
2026-05-06 17:51 58.49610 7.54217 36237 ft 457 kts 156°
2026-05-06 17:51 58.46838 7.57208 36424 ft 457 kts 156°
2026-05-06 17:52 58.44072 7.60187 36598 ft 457 kts 156°
2026-05-06 17:52 58.41296 7.63169 36779 ft 458 kts 156°
2026-05-06 17:52 58.38523 7.66142 36946 ft 458 kts 156°
2026-05-06 17:52 58.35766 7.69090 36979 ft 460 kts 156°
2026-05-06 17:53 58.30181 7.75057 36979 ft 460 kts 156°
2026-05-06 17:53 58.24593 7.81006 36972 ft 460 kts 156°
2026-05-06 17:54 58.19050 7.86879 36974 ft 460 kts 156°
2026-05-06 17:54 58.13458 7.92781 36976 ft 460 kts 156°
2026-05-06 17:55 58.07863 7.98681 36978 ft 460 kts 156°
2026-05-06 17:55 58.02307 8.04530 36973 ft 460 kts 156°
2026-05-06 17:56 57.96769 8.10312 36982 ft 459 kts 156°
2026-05-06 17:56 57.91172 8.16130 36969 ft 459 kts 156°
2026-05-06 17:57 57.85590 8.21929 36981 ft 458 kts 156°
2026-05-06 17:57 57.80024 8.27692 36986 ft 458 kts 156°
2026-05-06 17:58 57.74439 8.33442 36993 ft 458 kts 156°
2026-05-06 17:58 57.68886 8.39151 36993 ft 458 kts 156°
2026-05-06 17:59 57.63306 8.44870 36969 ft 457 kts 156°
2026-05-06 17:59 57.57718 8.50564 36983 ft 456 kts 157°
2026-05-06 18:00 57.52147 8.56218 36996 ft 456 kts 157°
2026-05-06 18:00 57.46579 8.61852 37005 ft 455 kts 157°
2026-05-06 18:01 57.41022 8.67468 37006 ft 455 kts 157°
2026-05-06 18:01 57.35490 8.73026 37005 ft 454 kts 157°
2026-05-06 18:02 57.29934 8.78588 36984 ft 454 kts 157°
2026-05-06 18:02 57.24343 8.84172 36995 ft 453 kts 157°
2026-05-06 18:03 57.18825 8.89674 36997 ft 453 kts 157°
2026-05-06 18:03 57.13271 8.95188 36982 ft 453 kts 157°
2026-05-06 18:04 57.07718 9.00675 36990 ft 452 kts 157°
2026-05-06 18:04 57.02175 9.06121 36973 ft 452 kts 157°
2026-05-06 18:05 56.96631 9.11561 36984 ft 452 kts 157°
2026-05-06 18:05 56.91091 9.16979 36988 ft 452 kts 157°
2026-05-06 18:06 56.85549 9.22382 36988 ft 451 kts 157°
2026-05-06 18:06 56.80005 9.27781 36986 ft 451 kts 157°
2026-05-06 18:07 56.74464 9.33152 36969 ft 451 kts 157°
2026-05-06 18:07 56.68917 9.38496 36953 ft 450 kts 157°
2026-05-06 18:08 56.63370 9.43817 36970 ft 450 kts 157°
2026-05-06 18:08 56.57828 9.49121 36973 ft 450 kts 157°
2026-05-06 18:09 56.52309 9.54418 36966 ft 450 kts 157°
2026-05-06 18:09 56.46771 9.59704 36944 ft 449 kts 157°
2026-05-06 18:10 56.41266 9.64929 36951 ft 449 kts 157°
2026-05-06 18:10 56.35728 9.70166 36952 ft 449 kts 157°
2026-05-06 18:11 56.30196 9.75379 36955 ft 449 kts 157°
2026-05-06 18:11 56.24657 9.80585 36946 ft 449 kts 157°
2026-05-06 18:12 56.19185 9.85714 36957 ft 448 kts 157°
2026-05-06 18:12 56.13651 9.90879 36945 ft 448 kts 157°
2026-05-06 18:13 56.08121 9.96027 36949 ft 448 kts 157°
2026-05-06 18:13 56.02586 10.01169 36954 ft 448 kts 157°
2026-05-06 18:14 55.97053 10.06282 36957 ft 448 kts 157°
2026-05-06 18:14 55.91510 10.11381 36960 ft 448 kts 157°
2026-05-06 18:15 55.85978 10.16459 36940 ft 447 kts 157°
2026-05-06 18:15 55.80438 10.21535 36932 ft 447 kts 157°
2026-05-06 18:16 55.74898 10.26595 36947 ft 447 kts 157°
2026-05-06 18:16 55.69430 10.31559 36953 ft 447 kts 157°
2026-05-06 18:17 55.63887 10.36587 36959 ft 447 kts 157°
2026-05-06 18:17 55.58351 10.41609 36958 ft 447 kts 157°
2026-05-06 18:18 55.52806 10.46608 36955 ft 447 kts 157°
2026-05-06 18:18 55.47264 10.51579 36956 ft 447 kts 157°
2026-05-06 18:19 55.41720 10.56533 36959 ft 447 kts 157°
2026-05-06 18:19 55.36174 10.61494 36959 ft 447 kts 157°
2026-05-06 18:20 55.30625 10.66435 36945 ft 447 kts 157°
2026-05-06 18:20 55.25069 10.71359 36942 ft 447 kts 157°
2026-05-06 18:21 55.19510 10.76263 36956 ft 447 kts 157°
2026-05-06 18:21 55.13957 10.81159 36959 ft 447 kts 157°
2026-05-06 18:22 55.08401 10.86056 36959 ft 447 kts 157°
2026-05-06 18:22 55.02873 10.90907 36949 ft 447 kts 157°
2026-05-06 18:23 54.97315 10.95752 36943 ft 447 kts 157°
2026-05-06 18:23 54.91749 11.00584 36951 ft 446 kts 157°
2026-05-06 18:24 54.86199 11.05404 36957 ft 446 kts 157°
2026-05-06 18:24 54.80637 11.10228 36959 ft 446 kts 157°
2026-05-06 18:25 54.76030 11.14195 36960 ft 446 kts 157°
2026-05-06 18:25 54.70518 11.18934 36945 ft 446 kts 157°
2026-05-06 18:26 54.64961 11.23706 36953 ft 446 kts 157°
2026-05-06 18:26 54.59413 11.28447 36949 ft 446 kts 157°
2026-05-06 18:27 54.53879 11.33274 36946 ft 446 kts 156°
2026-05-06 18:27 54.48402 11.38347 36929 ft 447 kts 155°
2026-05-06 18:28 54.42948 11.43449 36929 ft 446 kts 155°
2026-05-06 18:28 54.37483 11.48497 36929 ft 446 kts 155°
2026-05-06 18:29 54.32021 11.53479 36933 ft 446 kts 155°
2026-05-06 18:29 54.26546 11.58448 36926 ft 446 kts 155°
2026-05-06 18:30 54.21067 11.63421 36929 ft 446 kts 155°
2026-05-06 18:30 54.15589 11.68391 36917 ft 445 kts 155°
2026-05-06 18:31 54.10116 11.73338 36901 ft 445 kts 156°
2026-05-06 18:31 54.04642 11.78275 36908 ft 445 kts 156°
2026-05-06 18:32 53.99167 11.83183 36914 ft 445 kts 156°
2026-05-06 18:32 53.93689 11.88091 36913 ft 445 kts 156°
2026-05-06 18:33 53.88214 11.92983 36900 ft 444 kts 156°
2026-05-06 18:33 53.82756 11.97836 36897 ft 445 kts 156°
2026-05-06 18:34 53.77263 12.02693 36899 ft 445 kts 156°
2026-05-06 18:34 53.71780 12.07539 36877 ft 445 kts 156°
2026-05-06 18:35 53.66302 12.12369 36893 ft 444 kts 156°
2026-05-06 18:35 53.60903 12.17124 36879 ft 444 kts 156°
2026-05-06 18:36 53.55424 12.21932 36885 ft 443 kts 156°
2026-05-06 18:36 53.49957 12.26712 36889 ft 443 kts 156°
2026-05-06 18:37 53.44480 12.31475 36883 ft 443 kts 156°
2026-05-06 18:37 53.39008 12.36219 36879 ft 443 kts 156°
2026-05-06 18:38 53.33540 12.40970 36870 ft 443 kts 156°
2026-05-06 18:38 53.28064 12.45702 36855 ft 442 kts 157°
2026-05-06 18:39 53.22594 12.50410 36859 ft 442 kts 157°
2026-05-06 18:40 53.14407 12.57434 36855 ft 442 kts 157°
2026-05-06 18:40 53.08937 12.62115 36859 ft 442 kts 157°
2026-05-06 18:41 53.03453 12.66791 36850 ft 442 kts 157°
2026-05-06 18:41 52.97980 12.71446 36848 ft 442 kts 157°
2026-05-06 18:42 52.92499 12.76087 36830 ft 442 kts 157°
2026-05-06 18:42 52.87016 12.80726 36852 ft 442 kts 157°
2026-05-06 18:43 52.81546 12.85345 36856 ft 441 kts 157°
2026-05-06 18:43 52.76046 12.89973 36851 ft 441 kts 157°
2026-05-06 18:44 52.70596 12.94534 36845 ft 441 kts 157°
2026-05-06 18:44 52.65128 12.99103 36856 ft 441 kts 158°
2026-05-06 18:45 52.59652 13.03671 36839 ft 441 kts 157°
2026-05-06 18:45 52.54186 13.08228 36831 ft 441 kts 158°
2026-05-06 18:46 52.48704 13.12767 36822 ft 440 kts 158°
2026-05-06 18:46 52.43247 13.17266 36831 ft 440 kts 158°
2026-05-06 18:47 52.37785 13.21766 36838 ft 440 kts 158°
2026-05-06 18:47 52.32318 13.26275 36842 ft 440 kts 158°
2026-05-06 18:48 52.26850 13.30765 36842 ft 440 kts 158°
2026-05-06 18:48 52.21406 13.35208 36846 ft 439 kts 158°
2026-05-06 18:49 52.15953 13.39645 36849 ft 438 kts 158°
2026-05-06 18:49 52.10506 13.44072 36828 ft 437 kts 159°
2026-05-06 18:50 52.05061 13.48487 36832 ft 437 kts 159°
2026-05-06 18:50 51.99622 13.52880 36838 ft 436 kts 159°
2026-05-06 18:51 51.94184 13.57262 36817 ft 436 kts 159°
2026-05-06 18:51 51.88748 13.61630 36828 ft 436 kts 159°
2026-05-06 18:52 51.83367 13.65938 36825 ft 436 kts 159°
2026-05-06 18:52 51.77931 13.70293 36832 ft 436 kts 159°
2026-05-06 18:53 51.72501 13.74637 36801 ft 436 kts 159°
2026-05-06 18:53 51.67076 13.78946 36813 ft 435 kts 159°
2026-05-06 18:54 51.61645 13.83240 36813 ft 435 kts 159°
2026-05-06 18:54 51.56076 13.86631 36439 ft 422 kts 174°
2026-05-06 18:54 51.53193 13.87442 35676 ft 421 kts 175°
2026-05-06 18:55 51.50305 13.88217 34947 ft 420 kts 175°
2026-05-06 18:55 51.47424 13.88998 34231 ft 420 kts 175°
2026-05-06 18:55 51.44557 13.89785 33439 ft 419 kts 175°
2026-05-06 18:55 51.41680 13.90554 32535 ft 419 kts 175°
2026-05-06 18:56 51.38802 13.91302 31619 ft 421 kts 175°
2026-05-06 18:56 51.35954 13.92389 30699 ft 428 kts 163°
2026-05-06 18:56 51.33301 13.94656 29787 ft 436 kts 152°
2026-05-06 18:56 51.30758 13.97294 28901 ft 435 kts 152°
2026-05-06 18:57 51.28234 13.99954 27994 ft 433 kts 151°
2026-05-06 18:57 51.25737 14.02605 27243 ft 428 kts 151°
2026-05-06 18:57 51.23263 14.05226 26513 ft 424 kts 151°
2026-05-06 18:57 51.20812 14.07808 25811 ft 420 kts 151°
2026-05-06 18:58 51.18377 14.10360 25099 ft 417 kts 151°
2026-05-06 18:58 51.15958 14.12885 24422 ft 414 kts 151°
2026-05-06 18:58 51.13583 14.15361 23763 ft 411 kts 150°
2026-05-06 18:58 51.11201 14.17841 23068 ft 408 kts 150°
2026-05-06 18:59 51.08830 14.20303 22307 ft 406 kts 150°
2026-05-06 18:59 51.06474 14.22748 21635 ft 403 kts 150°
2026-05-06 18:59 51.04140 14.25167 21037 ft 398 kts 150°
2026-05-06 18:59 51.01828 14.27561 20449 ft 395 kts 150°
2026-05-06 19:00 50.99539 14.29929 19843 ft 391 kts 151°
2026-05-06 19:00 50.97265 14.32277 19281 ft 389 kts 151°
2026-05-06 19:00 50.95016 14.34595 18886 ft 382 kts 152°
2026-05-06 19:00 50.93497 14.35959 18679 ft 377 kts 158°
2026-05-06 19:01 50.90259 14.37859 18136 ft 369 kts 169°
2026-05-06 19:01 50.87764 14.38784 17688 ft 367 kts 170°
2026-05-06 19:01 50.85282 14.39700 17237 ft 365 kts 170°
2026-05-06 19:01 50.82821 14.40608 16792 ft 364 kts 170°
2026-05-06 19:02 50.80365 14.41515 16345 ft 362 kts 170°
2026-05-06 19:02 50.77928 14.42416 15913 ft 360 kts 170°
2026-05-06 19:02 50.75519 14.43310 15492 ft 358 kts 170°
2026-05-06 19:02 50.73118 14.44191 15069 ft 356 kts 171°
2026-05-06 19:03 50.70683 14.44451 14644 ft 348 kts 188°
2026-05-06 19:03 50.68362 14.43517 14228 ft 342 kts 206°
2026-05-06 19:03 50.66999 14.42301 13951 ft 340 kts 215°
2026-05-06 19:03 50.64387 14.39494 13390 ft 338 kts 215°
2026-05-06 19:04 50.63105 14.38117 13090 ft 337 kts 215°
2026-05-06 19:04 50.61175 14.36041 12645 ft 335 kts 215°
2026-05-06 19:04 50.59259 14.33974 12217 ft 333 kts 215°
2026-05-06 19:04 50.57357 14.31915 11759 ft 331 kts 215°
2026-05-06 19:05 50.55462 14.29861 11337 ft 329 kts 215°
2026-05-06 19:05 50.53582 14.27827 10911 ft 328 kts 215°
2026-05-06 19:05 50.52949 14.27141 10772 ft 327 kts 215°